This demonstration page uses our WeatherBlox Daily Observations layout. Learn more.

Left ArrowRight Arrow

Hourly Observations for June 19, 2017

Temp ( °F °C ) Dew Point ( °F °C ) Humidity (%) Winds ( mph kmh ) Pressure ( in mb ) Visibility ( mi km ) Precip ( " mm )
12:51 am 00:51 Clear 92 33.3 26 -3.3 9 9 NW 12 19 29.62 1003 10 16 N/A
1:51 am 01:51 Clear 83 28.3 29 -1.7 14 14 W 9 15 29.64 1004 10 16 N/A
2:51 am 02:51 Clear 81 27.2 26 -3.3 13 13 NW 9 15 29.64 1004 10 16 N/A
3:51 am 03:51 Clear 87 30.6 27 -2.8 11 11 NNW 8 13 29.63 1004 10 16 N/A
4:51 am 04:51 Clear 78 25.6 28 -2.2 16 16 S 7 11 29.67 1005 10 16 N/A
5:51 am 05:51 Sunny 76 24.4 26 -3.3 16 16 N N/A 29.70 1006 10 16 N/A
6:51 am 06:51 Sunny 84 28.9 28 -2.2 13 13 ESE 6 9 29.71 1006 10 16 N/A
7:51 am 07:51 Sunny 88 31.1 28 -2.2 11 11 SSE 6 9 29.73 1007 10 16 N/A
8:51 am 08:51 Sunny 93 33.9 31 -0.6 11 11 N N/A 29.73 1007 10 16 N/A
9:51 am 09:51 Sunny 98 36.7 34 1.1 11 11 S 8 13 29.72 1007 10 16 N/A
10:51 am 10:51 Sunny 101 38.3 34 1.1 10 10 undefined N/A 29.72 1006 10 16 N/A
11:51 am 11:51 Sunny 104 40 33 0.6 8 8 N N/A 29.69 1006 10 16 N/A
12:51 pm 12:51 Sunny 107 41.7 30 -1.1 7 7 SE 3 6 29.66 1004 10 16 N/A
1:51 pm 13:51 Sunny 109 42.8 31 -0.6 7 7 SSW 8 13 29.63 1003 10 16 N/A
2:51 pm 14:51 Sunny 109 42.8 34 1.1 7 7 VRB 5 7 29.61 1003 10 16 N/A
3:51 pm 15:51 Sunny 110 43.3 34 1.1 7 7 S 8 13 29.60 1002 10 16 N/A
4:25 pm 16:25 Sunny 105 40.6 39 3.9 10 10 NE 25 41 29.47 998 8 13 N/A
4:51 pm 16:51 Sunny 101 38.3 42 5.6 13 13 ENE 31 50 29.65 1004 10 16 N/A
5:51 pm 17:51 Sunny 102 38.9 37 2.8 10 10 E 16 26 29.67 1005 10 16 N/A
6:51 pm 18:51 Sunny 101 38.3 36 2.2 10 10 E 8 13 29.67 1005 10 16 N/A
7:51 pm 19:51 Clear 101 38.3 34 1.1 10 10 N N/A 29.67 1005 10 16 N/A
8:51 pm 20:51 Clear 94 34.4 41 5 16 16 SE 5 7 29.71 1006 10 16 N/A
9:51 pm 21:51 Clear 90 32.2 40 4.4 17 17 N N/A 29.72 1007 10 16 N/A
10:51 pm 22:51 Clear 87 30.6 38 3.3 18 18 ESE 7 11 29.74 1007 10 16 N/A
11:51 pm 23:51 Clear 87 30.6 39 3.9 18 18 E 7 11 29.75 1008 10 16 N/A

Powered by AerisWeather